sat.trackr.live / text

‹ back to catalog

STARLINK-5052

NORAD 53893 · 2022-119H

PAYLOAD ACTIVE UNKNOWN

§ Identity

Operator
Country
US
Launch date
2022-09-24
Launch site
AFETR
Launch vehicle
Mass (kg)
RCS (m²)

Purposes: comms

External: N2YO · Heavens-Above · Gunter

§ Orbital elements

Epoch: 2026-09-19T23:03:18.722304Z

Period
93.79 min
Inclination
53.1617°
Eccentricity
0.0001261
Mean motion
15.35399306 rev/d
Perigee alt
458.9 km
Apogee alt
460.6 km
Semi-major
6,837.9 km
B*
3.5272e-5
RAAN
166.3882°
Arg perigee
90.8621°
Mean anomaly
269.2527°
Rev number
22,108

§ Raw data

STARLINK-50521 53893U 22119H   26262.96063336  .00000850  00000+0  35272-4 0  99922 53893  53.1617 166.3882 0001261  90.8621 269.2527 15.35399306221083

JSON: /api/v1/satellites/53893 · /tle

For live sub-satellite position, see the globe view (requires WebGL).

§ Visibility from observer

Set your observer location to see the next 7 days of passes ≥ 10°. The values pass through the URL so the page stays shareable.

No JS? Fill the form by hand. The geolocation button needs JavaScript.